Location: Carella
(45.8167°N, 9.2667°E)
Time: 08:58:22
(UTC+00:00)

SL-8 R/B - Pass Details

Date: 30 March 2020
Orbit: 656 x 667 km, 48.4° (Epoch: 01 June)

Event Time Altitude Azimuth Distance (km) Brightness Sun altitude
Rises 19:59:55 0° 286° (WNW) 2,982 8.4 -22.2°
Reaches altitude 10° 20:02:16 10° 288° (WNW) 2,068 7.3 -22.5°
Maximum altitude 20:07:03 79° 15° (NNE) 671 3.6 -23.2°
Enters shadow 20:07:35 68° 77° (ENE) 706 3.6 -23.3°
